Location: Horowhenua
(40.7500°S, 175.3333°E)
Time: 05:24:04
(UTC+00:00)

Cosmos 1680 Rocket - Pass Details

Date: 28 January 2023
Orbit: 758 x 781 km, 74.1° (Epoch: 01 April)

Event Time Altitude Azimuth Distance (km) Brightness Sun altitude
Exits shadow 14:32:31 51° 31° (NNE) 987 3.8 -24.7°
Maximum altitude 14:33:30 60° 75° (ENE) 901 3.8 -24.6°
Drops below altitude 10° 14:38:48 10° 153° (SSE) 2,367 7.1 -24.1°
Sets 14:41:14 0° 157° (SSE) 3,304 8.1 -23.8°
